TimeCDT,TemperatureF,Dew PointF,Humidity,Sea Level PressureIn,VisibilityMPH,Wind Direction,Wind SpeedMPH,Gust SpeedMPH,PrecipitationIn,Events,Conditions,WindDirDegrees,DateUTC
12:14 AM,78.8,73.4,83,29.97,10.0,South,6.9,-,N/A,,Clear,180,2013-08-26 05:14:00
12:33 AM,77.0,71.6,83,29.97,10.0,South,5.8,-,N/A,,Clear,190,2013-08-26 05:33:00
12:54 AM,77.0,71.6,83,29.97,10.0,South,6.9,-,N/A,,Clear,190,2013-08-26 05:54:00
1:13 AM,77.0,71.6,83,29.97,10.0,South,5.8,-,N/A,,Clear,190,2013-08-26 06:13:00
1:34 AM,77.0,71.6,83,29.97,10.0,South,5.8,-,N/A,,Clear,180,2013-08-26 06:34:00
1:54 AM,77.0,71.6,83,29.96,10.0,South,3.5,-,N/A,,Clear,180,2013-08-26 06:54:00
2:14 AM,77.0,71.6,83,29.96,10.0,South,4.6,-,N/A,,Clear,190,2013-08-26 07:14:00
2:33 AM,77.0,71.6,83,29.96,10.0,South,6.9,-,N/A,,Clear,190,2013-08-26 07:33:00
2:54 AM,77.0,71.6,83,29.96,10.0,South,5.8,-,N/A,,Clear,190,2013-08-26 07:54:00
3:14 AM,77.0,71.6,83,29.96,10.0,South,6.9,-,N/A,,Clear,190,2013-08-26 08:14:00
3:33 AM,77.0,71.6,83,29.96,10.0,SSW,5.8,-,N/A,,Clear,200,2013-08-26 08:33:00
3:54 AM,77.0,71.6,83,29.96,10.0,SSW,4.6,-,N/A,,Clear,200,2013-08-26 08:54:00
4:14 AM,75.2,69.8,83,29.95,10.0,SSW,5.8,-,N/A,,Clear,200,2013-08-26 09:14:00
4:33 AM,73.4,69.8,88,29.96,10.0,SSW,3.5,-,N/A,,Clear,210,2013-08-26 09:33:00
4:53 AM,73.4,69.8,88,29.96,10.0,Calm,Calm,-,N/A,,Clear,0,2013-08-26 09:53:00
5:14 AM,73.4,69.8,88,29.96,10.0,Calm,Calm,-,N/A,,Clear,0,2013-08-26 10:14:00
5:33 AM,73.4,69.8,88,29.96,7.0,Calm,Calm,-,N/A,,Clear,0,2013-08-26 10:33:00
5:53 AM,73.4,69.8,88,29.96,10.0,Calm,Calm,-,N/A,,Clear,0,2013-08-26 10:53:00
6:14 AM,73.4,69.8,88,29.96,10.0,Calm,Calm,-,N/A,,Clear,0,2013-08-26 11:14:00
6:33 AM,73.4,71.6,94,29.96,7.0,Calm,Calm,-,N/A,,Clear,0,2013-08-26 11:33:00
6:53 AM,73.4,69.8,88,29.97,7.0,SSE,3.5,-,N/A,,Clear,150,2013-08-26 11:53:00
7:14 AM,73.4,69.8,88,29.97,7.0,SSE,5.8,-,N/A,,Clear,150,2013-08-26 12:14:00
7:33 AM,73.4,69.8,88,29.97,7.0,Calm,Calm,-,N/A,,Clear,0,2013-08-26 12:33:00
7:53 AM,73.4,69.8,88,29.97,10.0,SSE,4.6,-,N/A,,Clear,150,2013-08-26 12:53:00
8:14 AM,77.0,71.6,83,29.97,10.0,SE,3.5,-,N/A,,Clear,140,2013-08-26 13:14:00
8:34 AM,78.8,71.6,78,29.97,7.0,South,4.6,-,N/A,,Clear,170,2013-08-26 13:34:00
8:53 AM,78.8,71.6,78,29.97,10.0,Calm,Calm,-,N/A,,Clear,0,2013-08-26 13:53:00
9:14 AM,80.6,69.8,70,29.96,10.0,South,3.5,-,N/A,,Clear,180,2013-08-26 14:14:00
9:33 AM,80.6,69.8,70,29.96,10.0,South,4.6,-,N/A,,Clear,180,2013-08-26 14:33:00
9:54 AM,82.4,69.8,66,29.96,10.0,South,5.8,-,N/A,,Clear,170,2013-08-26 14:54:00
10:14 AM,82.4,69.8,66,29.96,10.0,South,8.1,-,N/A,,Clear,180,2013-08-26 15:14:00
10:34 AM,82.4,69.8,66,29.96,10.0,South,5.8,-,N/A,,Clear,180,2013-08-26 15:34:00
10:53 AM,84.2,69.8,62,29.96,10.0,South,6.9,-,N/A,,Clear,190,2013-08-26 15:53:00
11:14 AM,86.0,71.6,62,29.96,10.0,SSW,5.8,-,N/A,,Clear,200,2013-08-26 16:14:00
11:34 AM,87.8,71.6,58,29.95,10.0,SSW,8.1,-,N/A,,Clear,210,2013-08-26 16:34:00
11:53 AM,87.8,71.6,58,29.95,10.0,South,6.9,-,N/A,,Clear,170,2013-08-26 16:53:00
12:13 PM,89.6,71.6,55,29.95,10.0,South,5.8,-,N/A,,Clear,170,2013-08-26 17:13:00
12:33 PM,89.6,71.6,55,29.94,10.0,South,6.9,-,N/A,,Clear,190,2013-08-26 17:33:00
12:54 PM,89.6,71.6,55,29.93,10.0,SSE,10.4,-,N/A,,Clear,160,2013-08-26 17:54:00
1:14 PM,89.6,71.6,55,29.92,10.0,South,9.2,16.1,N/A,,Clear,170,2013-08-26 18:14:00
1:33 PM,89.6,71.6,55,29.92,10.0,South,11.5,17.3,N/A,,Clear,170,2013-08-26 18:33:00
1:54 PM,89.6,71.6,55,29.92,10.0,SSE,10.4,-,N/A,,Clear,160,2013-08-26 18:54:00
2:13 PM,89.6,71.6,55,29.91,10.0,SSE,11.5,-,N/A,,Clear,160,2013-08-26 19:13:00
2:33 PM,89.6,69.8,52,29.90,10.0,South,12.7,18.4,N/A,,Clear,170,2013-08-26 19:33:00
2:54 PM,91.4,71.6,52,29.90,10.0,South,11.5,16.1,N/A,,Clear,190,2013-08-26 19:54:00
3:13 PM,91.4,71.6,52,29.89,10.0,South,12.7,16.1,N/A,,Clear,180,2013-08-26 20:13:00
3:34 PM,91.4,73.4,55,29.89,10.0,South,10.4,19.6,N/A,,Clear,180,2013-08-26 20:34:00
3:53 PM,91.4,71.6,52,29.88,10.0,South,12.7,19.6,N/A,,Clear,180,2013-08-26 20:53:00
4:13 PM,91.4,71.6,52,29.88,10.0,South,12.7,18.4,N/A,,Clear,180,2013-08-26 21:13:00
4:34 PM,91.4,73.4,55,29.87,10.0,South,11.5,-,N/A,,Clear,190,2013-08-26 21:34:00
4:53 PM,89.6,73.4,59,29.87,10.0,South,9.2,-,N/A,,Clear,180,2013-08-26 21:53:00
5:13 PM,89.6,73.4,59,29.87,10.0,South,9.2,-,N/A,,Clear,180,2013-08-26 22:13:00
5:34 PM,89.6,71.6,55,29.86,10.0,South,10.4,17.3,N/A,,Clear,190,2013-08-26 22:34:00
5:53 PM,89.6,71.6,55,29.85,10.0,South,10.4,17.3,N/A,,Clear,180,2013-08-26 22:53:00
6:14 PM,89.6,73.4,59,29.84,10.0,SSW,12.7,16.1,N/A,,Clear,200,2013-08-26 23:14:00
6:33 PM,89.6,73.4,59,29.84,10.0,SSW,12.7,21.9,N/A,,Clear,200,2013-08-26 23:33:00
6:54 PM,89.6,73.4,59,29.83,10.0,SSW,11.5,-,N/A,,Clear,200,2013-08-26 23:54:00
7:14 PM,89.6,73.4,59,29.83,10.0,SSW,11.5,18.4,N/A,,Clear,200,2013-08-27 00:14:00
7:33 PM,89.6,75.2,62,29.83,10.0,SSW,12.7,18.4,N/A,,Clear,200,2013-08-27 00:33:00
7:54 PM,87.8,73.4,62,29.84,10.0,SSW,11.5,-,N/A,,Clear,200,2013-08-27 00:54:00
8:13 PM,86.0,71.6,62,29.84,10.0,South,9.2,-,N/A,,Clear,190,2013-08-27 01:13:00
8:34 PM,82.4,71.6,70,29.84,10.0,South,10.4,-,N/A,,Clear,190,2013-08-27 01:34:00
8:53 PM,82.4,71.6,70,29.84,10.0,SSW,9.2,-,N/A,,Clear,200,2013-08-27 01:53:00
9:14 PM,82.4,71.6,70,29.85,10.0,SSW,10.4,-,N/A,,Clear,210,2013-08-27 02:14:00
9:33 PM,80.6,71.6,74,29.85,10.0,SSW,6.9,-,N/A,,Clear,210,2013-08-27 02:33:00
9:54 PM,80.6,71.6,74,29.86,10.0,SSW,4.6,-,N/A,,Clear,210,2013-08-27 02:54:00
10:13 PM,78.8,71.6,78,29.86,10.0,South,3.5,-,N/A,,Clear,170,2013-08-27 03:13:00
10:34 PM,78.8,71.6,78,29.85,10.0,SSE,3.5,-,N/A,,Clear,160,2013-08-27 03:34:00
10:53 PM,78.8,73.4,83,29.84,10.0,SSE,3.5,-,N/A,,Clear,150,2013-08-27 03:53:00
11:14 PM,78.8,71.6,78,29.85,10.0,ESE,3.5,-,N/A,,Clear,120,2013-08-27 04:14:00
11:33 PM,77.0,71.6,83,29.85,10.0,SE,3.5,-,N/A,,Clear,130,2013-08-27 04:33:00
11:54 PM,77.0,71.6,83,29.84,10.0,SE,4.6,-,N/A,,Clear,130,2013-08-27 04:54:00